Wetterdaten: Woche 19.12.05 - 25.12.05 (KW51)
Datum Zeit Temperatur Luftfeuchte Luftdruck Niederschlag Windrichtung Wind
19.12.2005 00:00 -2,6 C 81 % 1023 hPa 0,0 l/m S 11,4 km/h (2 Bft)
19.12.2005 01:00 -2,8 C 82 % 1023 hPa 0,0 l/m S 8,5 km/h (2 Bft)
19.12.2005 02:00 -3,2 C 83 % 1024 hPa 0,0 l/m S-SO 4,9 km/h (1 Bft)
19.12.2005 03:00 -3,1 C 86 % 1024 hPa 0,0 l/m SO 6,3 km/h (2 Bft)
19.12.2005 04:00 -2,7 C 84 % 1023 hPa 0,0 l/m S-SO 12,5 km/h (3 Bft)
19.12.2005 05:00 -2,8 C 81 % 1023 hPa 0,0 l/m S 14,9 km/h (3 Bft)
19.12.2005 06:00 -3,2 C 80 % 1024 hPa 0,0 l/m S 14,4 km/h (3 Bft)
19.12.2005 07:00 -3,3 C 80 % 1024 hPa 0,0 l/m S 13,1 km/h (3 Bft)
19.12.2005 08:00 -3,8 C 81 % 1024 hPa 0,0 l/m S-SO 11,2 km/h (2 Bft)
19.12.2005 09:00 -3,9 C 82 % 1024 hPa 0,0 l/m SO 12,7 km/h (3 Bft)
19.12.2005 10:00 -3,2 C 79 % 1024 hPa 0,0 l/m S-SO 11,9 km/h (2 Bft)
19.12.2005 11:00 -2,1 C 69 % 1024 hPa 0,0 l/m S-SO 15,6 km/h (3 Bft)
19.12.2005 12:00 -1,5 C 64 % 1023 hPa 0,0 l/m S-SO 13,7 km/h (3 Bft)
19.12.2005 13:00 -1,2 C 62 % 1023 hPa 0,0 l/m S-SO 14,5 km/h (3 Bft)
19.12.2005 14:00 -1,5 C 64 % 1023 hPa 0,0 l/m S-SO 14,6 km/h (3 Bft)
19.12.2005 15:00 -1,9 C 74 % 1023 hPa 0,0 l/m S-SO 14,4 km/h (3 Bft)
19.12.2005 16:00 -2,5 C 86 % 1023 hPa 0,0 l/m S-SO 13,8 km/h (3 Bft)
19.12.2005 17:00 -2,5 C 88 % 1023 hPa 0,0 l/m S-SO 14,3 km/h (3 Bft)
19.12.2005 18:00 -2,6 C 92 % 1023 hPa 0,0 l/m SO 13,6 km/h (3 Bft)
19.12.2005 19:00 -2,7 C 96 % 1024 hPa 0,0 l/m S-SO 11,7 km/h (2 Bft)
19.12.2005 20:00 -2,6 C 95 % 1024 hPa 0,0 l/m S-SO 11,0 km/h (2 Bft)
19.12.2005 21:00 -2,4 C 96 % 1025 hPa 0,0 l/m S-SO 10,4 km/h (2 Bft)
19.12.2005 22:00 -2,2 C 95 % 1026 hPa 0,0 l/m S-SO 10,8 km/h (2 Bft)
19.12.2005 23:00 -2,0 C 94 % 1026 hPa 0,0 l/m SO 10,5 km/h (2 Bft)
20.12.2005 00:00 -1,9 C 93 % 1026 hPa 0,0 l/m S-SO 9,2 km/h (2 Bft)
20.12.2005 01:00 -1,8 C 93 % 1027 hPa 0,0 l/m S-SO 8,4 km/h (2 Bft)
20.12.2005 02:00 -1,9 C 94 % 1028 hPa 0,0 l/m S-SO 8,0 km/h (2 Bft)
20.12.2005 03:00 -1,9 C 97 % 1028 hPa 0,0 l/m SO 9,2 km/h (2 Bft)
20.12.2005 04:00 -1,8 C 98 % 1028 hPa 0,0 l/m SO 9,0 km/h (2 Bft)
20.12.2005 05:00 -1,8 C 99 % 1028 hPa 0,0 l/m SO 8,8 km/h (2 Bft)
20.12.2005 06:00 -1,8 C 100 % 1029 hPa 0,0 l/m O-SO 4,5 km/h (1 Bft)
20.12.2005 07:00 -1,8 C 100 % 1029 hPa 0,0 l/m SO 4,4 km/h (1 Bft)
20.12.2005 08:00 -1,7 C 100 % 1029 hPa 0,0 l/m O-SO 0,9 km/h (0 Bft)
20.12.2005 09:00 -1,3 C 99 % 1029 hPa 0,0 l/m S-SO 4,0 km/h (1 Bft)
20.12.2005 10:00 -1,2 C 93 % 1029 hPa 0,0 l/m S-SO 6,3 km/h (2 Bft)
20.12.2005 11:00 -0,6 C 91 % 1029 hPa 0,0 l/m S-SO 9,5 km/h (2 Bft)
20.12.2005 12:00 -0,2 C 87 % 1029 hPa 0,0 l/m S-SO 9,9 km/h (2 Bft)
20.12.2005 13:00 -0,2 C 86 % 1029 hPa 0,0 l/m S-SO 10,4 km/h (2 Bft)
20.12.2005 14:00 -0,6 C 87 % 1028 hPa 0,0 l/m S-SO 11,4 km/h (2 Bft)
20.12.2005 15:00 -1,0 C 90 % 1028 hPa 0,0 l/m S-SO 10,3 km/h (2 Bft)
20.12.2005 16:00 -1,5 C 92 % 1028 hPa 0,0 l/m S-SO 10,3 km/h (2 Bft)
20.12.2005 17:00 -1,7 C 95 % 1028 hPa 0,0 l/m S-SO 10,8 km/h (2 Bft)
20.12.2005 18:00 -2,2 C 97 % 1028 hPa 0,0 l/m S-SO 10,5 km/h (2 Bft)
20.12.2005 19:00 -2,5 C 98 % 1029 hPa 0,0 l/m S-SO 7,0 km/h (2 Bft)
20.12.2005 20:00 -2,5 C 99 % 1029 hPa 0,0 l/m SW 2,0 km/h (1 Bft)
20.12.2005 21:00 -2,6 C 99 % 1030 hPa 0,0 l/m S 1,8 km/h (1 Bft)
20.12.2005 22:00 -2,5 C 98 % 1030 hPa 0,0 l/m S-SW 2,0 km/h (1 Bft)
20.12.2005 23:00 -2,5 C 98 % 1030 hPa 0,0 l/m S-SO 3,2 km/h (1 Bft)
21.12.2005 00:00 -3,4 C 97 % 1030 hPa 0,0 l/m S-SO 8,0 km/h (2 Bft)
21.12.2005 01:00 -3,5 C 99 % 1030 hPa 0,0 l/m S-SO 11,1 km/h (2 Bft)
21.12.2005 02:00 -3,4 C 100 % 1030 hPa 0,0 l/m S-SO 10,4 km/h (2 Bft)
21.12.2005 03:00 -3,7 C 100 % 1030 hPa 0,0 l/m S-SO 9,0 km/h (2 Bft)
21.12.2005 04:00 -4,2 C 100 % 1030 hPa 0,0 l/m S-SW 2,0 km/h (1 Bft)
21.12.2005 05:00 -4,4 C 100 % 1031 hPa 0,0 l/m NW 1,8 km/h (1 Bft)
21.12.2005 06:00 -4,5 C 100 % 1031 hPa 0,0 l/m N 0,0 km/h (0 Bft)
21.12.2005 07:00 -4,6 C 100 % 1031 hPa 0,0 l/m N 0,0 km/h (0 Bft)
21.12.2005 08:00 -4,3 C 100 % 1031 hPa 0,0 l/m W 1,8 km/h (1 Bft)
21.12.2005 09:00 -4,0 C 100 % 1031 hPa 0,0 l/m W 0,5 km/h (0 Bft)
21.12.2005 10:00 -3,7 C 100 % 1031 hPa 0,0 l/m O 1,3 km/h (1 Bft)
21.12.2005 11:00 -3,1 C 99 % 1031 hPa 0,0 l/m N 0,0 km/h (0 Bft)
21.12.2005 12:00 -2,2 C 96 % 1031 hPa 0,0 l/m NW 0,3 km/h (0 Bft)
21.12.2005 13:00 -1,3 C 90 % 1030 hPa 0,0 l/m W-NW 1,7 km/h (1 Bft)
21.12.2005 14:00 -1,0 C 87 % 1030 hPa 0,0 l/m NW 4,8 km/h (1 Bft)
21.12.2005 15:00 -0,9 C 88 % 1030 hPa 0,0 l/m W-NW 2,1 km/h (1 Bft)
21.12.2005 16:00 -1,4 C 88 % 1031 hPa 0,0 l/m W-NW 0,5 km/h (0 Bft)
21.12.2005 17:00 -1,7 C 92 % 1031 hPa 0,0 l/m O-NO 3,1 km/h (1 Bft)
21.12.2005 18:00 -1,6 C 93 % 1031 hPa 0,0 l/m NO 6,4 km/h (2 Bft)
21.12.2005 19:00 -1,7 C 94 % 1032 hPa 0,0 l/m NO 2,8 km/h (1 Bft)
21.12.2005 20:00 -1,7 C 94 % 1032 hPa 0,0 l/m O-NO 4,2 km/h (1 Bft)
21.12.2005 21:00 -1,9 C 93 % 1031 hPa 0,0 l/m O-SO 8,3 km/h (2 Bft)
21.12.2005 22:00 -1,9 C 92 % 1030 hPa 0,0 l/m S-SO 3,2 km/h (1 Bft)
21.12.2005 23:00 -2,0 C 92 % 1030 hPa 0,0 l/m SW 3,8 km/h (1 Bft)
22.12.2005 00:00 -2,2 C 91 % 1031 hPa 0,0 l/m W 4,0 km/h (1 Bft)
22.12.2005 01:00 -2,3 C 91 % 1030 hPa 0,0 l/m N 0,0 km/h (0 Bft)
22.12.2005 02:00 -2,4 C 91 % 1031 hPa 0,0 l/m N 0,0 km/h (0 Bft)
22.12.2005 03:00 -2,4 C 91 % 1031 hPa 0,0 l/m S-SW 1,3 km/h (1 Bft)
22.12.2005 04:00 -2,5 C 91 % 1030 hPa 0,0 l/m S-SW 6,0 km/h (2 Bft)
22.12.2005 05:00 -2,5 C 90 % 1030 hPa 0,0 l/m S-SW 7,1 km/h (2 Bft)
22.12.2005 06:00 -2,5 C 91 % 1030 hPa 0,0 l/m SO 8,6 km/h (2 Bft)
22.12.2005 07:00 -2,8 C 92 % 1030 hPa 0,0 l/m SO 12,8 km/h (3 Bft)
22.12.2005 08:00 -2,9 C 93 % 1030 hPa 0,0 l/m S-SO 10,0 km/h (2 Bft)
22.12.2005 09:00 -2,6 C 92 % 1030 hPa 0,0 l/m S-SO 11,8 km/h (2 Bft)
22.12.2005 10:00 -2,2 C 87 % 1030 hPa 0,0 l/m S-SO 12,3 km/h (3 Bft)
22.12.2005 11:00 -2,1 C 85 % 1030 hPa 0,0 l/m S-SO 14,2 km/h (3 Bft)
22.12.2005 12:00 -1,8 C 85 % 1030 hPa 0,0 l/m S-SO 12,4 km/h (3 Bft)
22.12.2005 13:00 -1,6 C 86 % 1029 hPa 0,0 l/m SO 13,9 km/h (3 Bft)
22.12.2005 14:00 -1,7 C 90 % 1029 hPa 0,0 l/m SO 11,1 km/h (2 Bft)
22.12.2005 15:00 -1,7 C 91 % 1029 hPa 0,0 l/m SO 12,5 km/h (3 Bft)
22.12.2005 16:00 -1,9 C 93 % 1029 hPa 0,0 l/m SO 13,5 km/h (3 Bft)
22.12.2005 17:00 -2,0 C 96 % 1029 hPa 0,0 l/m SO 16,2 km/h (3 Bft)
22.12.2005 18:00 -1,9 C 95 % 1030 hPa 0,0 l/m SO 11,5 km/h (2 Bft)
22.12.2005 19:00 -2,0 C 97 % 1029 hPa 0,0 l/m SO 12,4 km/h (3 Bft)
22.12.2005 20:00 -1,7 C 97 % 1029 hPa 0,0 l/m SO 5,2 km/h (1 Bft)
22.12.2005 21:00 -1,8 C 96 % 1029 hPa 0,0 l/m SO 9,8 km/h (2 Bft)
22.12.2005 22:00 -1,8 C 98 % 1029 hPa 0,0 l/m SO 9,8 km/h (2 Bft)
22.12.2005 23:00 -1,7 C 98 % 1028 hPa 0,0 l/m SO 7,2 km/h (2 Bft)
23.12.2005 00:00 -1,6 C 98 % 1028 hPa 0,0 l/m O-SO 7,3 km/h (2 Bft)
23.12.2005 01:00 -1,7 C 98 % 1028 hPa 0,0 l/m SO 8,1 km/h (2 Bft)
23.12.2005 02:00 -1,5 C 98 % 1028 hPa 0,0 l/m O-SO 7,8 km/h (2 Bft)
23.12.2005 03:00 -1,3 C 99 % 1028 hPa 0,0 l/m O-SO 10,8 km/h (2 Bft)
23.12.2005 04:00 -1,1 C 99 % 1027 hPa 0,0 l/m SO 12,4 km/h (3 Bft)
23.12.2005 05:00 -0,8 C 100 % 1027 hPa 0,0 l/m O-SO 12,6 km/h (3 Bft)
23.12.2005 06:00 -0,5 C 100 % 1026 hPa 0,0 l/m O-SO 11,5 km/h (2 Bft)
23.12.2005 07:00 -0,4 C 100 % 1027 hPa 0,0 l/m O-SO 12,7 km/h (3 Bft)
23.12.2005 08:00 -0,3 C 100 % 1027 hPa 0,0 l/m O-SO 9,3 km/h (2 Bft)
23.12.2005 09:00 -0,0 C 100 % 1028 hPa 0,0 l/m O-SO 8,2 km/h (2 Bft)
23.12.2005 10:00 0,3 C 100 % 1028 hPa 0,0 l/m SO 10,6 km/h (2 Bft)
23.12.2005 11:00 0,6 C 100 % 1028 hPa 0,0 l/m SO 10,2 km/h (2 Bft)
23.12.2005 12:00 0,7 C 100 % 1027 hPa 0,0 l/m O-SO 9,9 km/h (2 Bft)
23.12.2005 13:00 0,8 C 100 % 1027 hPa 0,0 l/m SO 9,1 km/h (2 Bft)
23.12.2005 14:00 0,9 C 100 % 1027 hPa 1,0 l/m SO 9,0 km/h (2 Bft)
23.12.2005 15:00 0,8 C 100 % 1027 hPa 0,0 l/m O-SO 9,2 km/h (2 Bft)
23.12.2005 16:00 0,6 C 100 % 1027 hPa 0,0 l/m O-SO 6,9 km/h (2 Bft)
23.12.2005 17:00 0,5 C 100 % 1027 hPa 0,0 l/m O-SO 5,9 km/h (2 Bft)
23.12.2005 18:00 0,4 C 100 % 1027 hPa 0,0 l/m O-SO 2,4 km/h (1 Bft)
23.12.2005 19:00 -0,0 C 100 % 1026 hPa 0,0 l/m N 0,0 km/h (0 Bft)
23.12.2005 20:00 -0,7 C 100 % 1026 hPa 0,0 l/m N 0,0 km/h (0 Bft)
23.12.2005 21:00 -1,3 C 100 % 1026 hPa 0,0 l/m N 0,0 km/h (0 Bft)
23.12.2005 22:00 -1,6 C 100 % 1026 hPa 0,0 l/m N 0,0 km/h (0 Bft)
23.12.2005 23:00 -2,1 C 100 % 1025 hPa 0,0 l/m N 0,0 km/h (0 Bft)
24.12.2005 00:00 -2,2 C 100 % 1025 hPa 0,0 l/m N 0,0 km/h (0 Bft)
24.12.2005 01:00 -2,5 C 100 % 1025 hPa 0,0 l/m N 0,0 km/h (0 Bft)
24.12.2005 02:00 -2,6 C 100 % 1025 hPa 0,0 l/m N 0,0 km/h (0 Bft)
24.12.2005 03:00 -2,4 C 100 % 1025 hPa 0,0 l/m N 0,0 km/h (0 Bft)
24.12.2005 04:00 -2,0 C 100 % 1024 hPa 0,0 l/m N 0,0 km/h (0 Bft)
24.12.2005 05:00 -1,7 C 100 % 1024 hPa 0,0 l/m N 0,0 km/h (0 Bft)
24.12.2005 06:00 -1,5 C 100 % 1024 hPa 0,0 l/m N 0,0 km/h (0 Bft)
24.12.2005 07:00 -1,5 C 100 % 1024 hPa 0,0 l/m N 0,0 km/h (0 Bft)
24.12.2005 08:00 -1,5 C 100 % 1024 hPa 0,0 l/m N 0,0 km/h (0 Bft)
24.12.2005 09:00 -1,1 C 100 % 1024 hPa 0,0 l/m N 0,0 km/h (0 Bft)
24.12.2005 10:00 -0,7 C 100 % 1024 hPa 0,0 l/m N 0,0 km/h (0 Bft)
24.12.2005 11:00 -0,2 C 100 % 1024 hPa 0,0 l/m N 0,0 km/h (0 Bft)
24.12.2005 12:00 0,3 C 100 % 1024 hPa 0,0 l/m N 0,0 km/h (0 Bft)
24.12.2005 13:00 0,6 C 100 % 1023 hPa 0,0 l/m O-SO 4,0 km/h (1 Bft)
24.12.2005 14:00 0,6 C 100 % 1023 hPa 0,0 l/m SO 6,8 km/h (2 Bft)
24.12.2005 15:00 0,5 C 100 % 1023 hPa 0,0 l/m O-SO 8,0 km/h (2 Bft)
24.12.2005 16:00 0,3 C 100 % 1023 hPa 0,0 l/m SO 10,8 km/h (2 Bft)
24.12.2005 17:00 0,2 C 100 % 1023 hPa 0,0 l/m SO 4,9 km/h (1 Bft)
24.12.2005 18:00 0,2 C 100 % 1023 hPa 0,0 l/m N 0,0 km/h (0 Bft)
24.12.2005 19:00 0,2 C 100 % 1022 hPa 0,0 l/m N 0,0 km/h (0 Bft)
24.12.2005 20:00 0,1 C 100 % 1022 hPa 0,0 l/m N 0,0 km/h (0 Bft)
24.12.2005 21:00 0,1 C 100 % 1022 hPa 0,0 l/m N 0,0 km/h (0 Bft)
24.12.2005 22:00 0,2 C 100 % 1022 hPa 0,0 l/m N 0,0 km/h (0 Bft)
24.12.2005 23:00 0,2 C 100 % 1022 hPa 0,0 l/m N 0,0 km/h (0 Bft)
25.12.2005 00:00 0,2 C 100 % 1021 hPa 0,0 l/m N 0,0 km/h (0 Bft)
25.12.2005 01:00 0,3 C 100 % 1021 hPa 0,0 l/m N 0,0 km/h (0 Bft)
25.12.2005 02:00 0,3 C 100 % 1021 hPa 0,0 l/m N 0,0 km/h (0 Bft)
25.12.2005 03:00 0,3 C 100 % 1021 hPa 0,0 l/m N 0,0 km/h (0 Bft)
25.12.2005 04:00 0,3 C 100 % 1020 hPa 0,0 l/m N 0,0 km/h (0 Bft)
25.12.2005 05:00 0,3 C 100 % 1020 hPa 0,0 l/m N 0,0 km/h (0 Bft)
25.12.2005 06:00 0,3 C 100 % 1019 hPa 0,0 l/m N 0,0 km/h (0 Bft)
25.12.2005 07:00 0,3 C 100 % 1019 hPa 0,0 l/m N 0,0 km/h (0 Bft)
25.12.2005 08:00 0,3 C 100 % 1020 hPa 0,0 l/m N 0,0 km/h (0 Bft)
25.12.2005 09:00 0,4 C 100 % 1020 hPa 0,0 l/m N 0,0 km/h (0 Bft)
25.12.2005 10:00 0,6 C 100 % 1020 hPa 0,0 l/m N 0,0 km/h (0 Bft)
25.12.2005 11:00 0,9 C 100 % 1019 hPa 0,0 l/m N 0,0 km/h (0 Bft)
25.12.2005 12:00 1,1 C 100 % 1019 hPa 0,0 l/m N 0,0 km/h (0 Bft)
25.12.2005 13:00 1,4 C 100 % 1018 hPa 0,0 l/m N 0,0 km/h (0 Bft)
25.12.2005 14:00 1,7 C 100 % 1018 hPa 0,0 l/m N 0,0 km/h (0 Bft)
25.12.2005 15:00 1,4 C 100 % 1018 hPa 0,0 l/m S-SO 0,2 km/h (0 Bft)
25.12.2005 16:00 0,9 C 100 % 1018 hPa 0,0 l/m N 0,0 km/h (0 Bft)
25.12.2005 17:00 0,6 C 100 % 1018 hPa 0,0 l/m N 0,0 km/h (0 Bft)
25.12.2005 18:00 0,2 C 100 % 1018 hPa 0,0 l/m N 0,0 km/h (0 Bft)
25.12.2005 19:00 -0,1 C 100 % 1018 hPa 0,0 l/m N 0,0 km/h (0 Bft)
25.12.2005 20:00 -0,2 C 100 % 1017 hPa 0,0 l/m N 0,0 km/h (0 Bft)
25.12.2005 21:00 -0,2 C 100 % 1017 hPa 0,0 l/m N 0,0 km/h (0 Bft)
25.12.2005 22:00 -0,3 C 100 % 1017 hPa 0,0 l/m N 0,0 km/h (0 Bft)
25.12.2005 23:00 -0,5 C 100 % 1016 hPa 0,0 l/m N 0,0 km/h (0 Bft)
Min-Datum _ 21.12.05 19.12.05 25.12.05 - - 19.12.05
_ Min-Zeit 06:57 13:10 22:31 - - 00:12
Minimum _ -4,6 C 60 % 1016 hPa - - 0,0 km/h (0 Bft)
Max-Datum _ 25.12.05 20.12.05 21.12.05 23.12.05 - 19.12.05
_ Max-Zeit 13:55 06:30 19:32 14:58 - 14:43
Maximum _ 1,7 C 100 % 1032 hPa 1,0 l/m - 28,7 km/h
S-SO (4 Bft)
Durchschnitt _ -1,4 C 95 % 1026 hPa #1,0 l/m SO 5,8 km/h (2 Bft)

Durchschnitt Minimum Temp.-1,5 C
Durchschnitt Maximum Temp.-1,3 C